Theta_e
337 341 343 341 342 341 338 337 337 335 332 326 323 318 315 313 311 310 309 308 307 307 309 310 310 308 305 304 305 304 304 304 302 305 306 308 307 306 307 308 309 309 308
340 343 342 341 341 336 333 333 331 326 323 318 315 312 310 308 307 307 305 305 304 304 306 309 307 306 303 303 302 302 301 302 301 299 301 303 304 305 305 305 305 307 306
344 341 339 336 333 329 322 319 317 315 314 312 311 309 306 305 305 305 304 303 304 306 306 305 304 304 302 301 300 299 299 300 301 299 299 302 302 303 303 305 305 305 306
340 336 332 327 322 317 314 311 310 309 307 306 306 304 304 303 304 305 304 305 305 305 305 304 304 302 301 301 300 299 300 300 300 300 300 300 300 302 302 301 301 305 304
331 324 320 318 315 312 310 307 308 305 303 303 302 302 303 304 305 304 305 305 305 305 304 304 304 305 305 304 302 301 300 299 299 299 298 298 298 300 299 300 299 301 304
319 315 314 312 309 306 305 305 303 301 300 300 300 301 301 303 301 303 304 304 304 302 300 300 301 302 301 302 302 302 303 300 298 297 298 298 298 299 299 299 297 296 296
314 312 311 309 305 304 302 301 299 298 297 297 298 299 298 300 298 299 300 301 300 299 298 299 299 300 300 300 300 299 299 299 299 300 297 298 298 297 296 296 296 295 295
311 310 308 305 303 302 300 298 297 297 296 296 296 297 297 298 297 297 298 299 298 297 297 297 297 298 299 299 299 297 296 297 297 297 297 296 296 297 296 296 295 295 297
309 307 307 305 301 300 298 296 296 295 295 294 295 295 295 295 295 295 297 297 297 297 298 298 297 297 295 294 295 294 293 293 295 296 295 294 294 293 295 294 292 292 291
306 307 305 303 301 299 298 297 296 294 294 294 293 294 295 294 294 294 296 296 295 296 297 296 296 294 293 292 293 292 291 291 292 293 293 294 294 294 294 295 293 290 290
307 306 306 304 301 301 298 296 295 293 293 292 291 292 293 294 294 294 294 295 296 296 296 294 294 293 292 291 291 292 291 292 291 291 292 293 294 294 294 294 294 292 290
305 304 302 302 302 300 297 295 294 293 291 290 289 289 290 292 293 293 294 294 296 296 294 294 293 291 290 290 291 290 290 290 291 292 292 292 292 292 293 294 294 294 294
300 299 300 300 300 299 296 295 293 292 291 290 289 289 289 290 291 293 293 294 295 294 294 292 291 290 289 290 290 290 289 291 291 291 290 291 292 292 294 294 295 296 296
295 295 295 294 294 294 296 296 294 292 291 290 289 288 289 289 290 292 293 293 292 291 291 291 289 288 288 288 288 289 289 291 290 290 290 290 292 292 291 293 293 294 294
292 292 291 290 290 289 289 291 291 291 293 290 289 289 289 289 290 291 291 291 291 290 288 288 286 286 286 287 287 287 288 288 288 289 288 288 289 290 291 293 294 294 293
291 290 289 289 289 290 289 289 290 290 290 289 289 290 290 290 290 290 289 289 288 288 286 285 284 284 284 285 285 285 286 286 286 287 287 287 287 288 289 291 293 293 292
289 289 288 288 288 288 289 289 287 289 290 289 289 290 289 289 289 289 288 287 287 286 284 283 283 283 283 284 284 284 284 285 285 286 286 286 287 288 288 289 290 291 292
290 289 289 288 288 288 288 288 289 288 288 288 289 290 289 289 288 288 287 287 285 284 284 282 282 282 282 283 283 283 284 284 285 285 285 286 286 287 287 288 289 289 290
290 289 289 289 288 288 288 288 288 288 288 288 288 288 288 288 287 287 286 285 283 282 282 281 282 281 282 282 282 282 283 283 283 284 284 285 286 286 287 288 289 287 288
293 291 291 290 290 289 289 288 288 288 288 288 288 288 289 288 287 286 285 284 283 282 281 280 281 281 281 281 281 281 282 283 282 283 284 284 285 286 287 287 288 289 289
296 295 290 293 292 292 291 289 289 288 288 288 288 287 282 288 286 285 284 283 282 281 281 281 280 281 281 281 281 281 282 282 282 282 283 283 285 285 287 288 289 289 288
295 295 295 294 294 293 292 291 290 289 288 286 287 285 283 287 286 285 283 282 282 281 281 281 281 281 281 281 281 281 281 281 282 282 283 283 284 285 286 287 288 288 288
295 295 295 295 292 288 289 289 289 287 286 287 287 286 286 286 285 284 283 282 282 282 282 282 281 281 282 283 282 282 281 281 282 282 283 283 284 285 286 286 287 287 287
295 295 295 293 291 288 287 286 286 285 287 286 286 286 286 286 285 283 283 283 282 282 282 282 282 282 282 282 282 282 282 282 283 283 283 284 284 285 285 286 286 287 287
294 295 293 292 290 288 287 287 287 287 286 286 285 286 286 286 285 284 284 283 283 283 282 282 282 282 282 282 282 282 281 281 282 281 284 284 284 284 284 285 285 286 286
293 293 292 291 290 289 288 287 286 286 285 285 285 285 285 285 285 284 284 284 284 283 282 282 282 282 282 282 282 281 280 281 282 281 284 284 284 284 284 284 284 284 284
Wind_Speed
13 12 13 12 12 12 12 11 12 13 15 15 10 8 3 7 12 9 8 8 7 5 4 5 7 7 5 5 4 4 4 3 2 2 2 3 4 7 9 9 9 8 8
15 14 13 12 13 13 13 14 14 14 10 13 15 12 9 10 10 8 7 6 6 5 4 6 7 6 7 5 4 5 3 2 1 5 3 3 4 6 9 9 9 8 9
15 15 14 14 14 16 15 15 15 16 14 12 13 12 11 10 10 6 7 6 7 5 7 8 7 7 6 4 4 3 3 2 1 2 3 2 2 6 8 8 9 9 8
15 15 13 16 17 18 16 16 17 16 15 13 11 12 11 10 9 8 8 8 10 9 9 9 8 8 6 4 4 4 3 3 3 3 4 4 3 5 5 9 11 8 10
17 17 14 16 17 19 19 18 15 17 14 14 13 11 10 8 7 9 9 10 10 10 9 9 9 9 11 8 3 4 4 4 5 4 4 4 6 8 10 8 9 11 10
17 18 18 17 18 17 18 17 17 16 13 13 11 11 10 8 12 13 9 9 9 9 9 8 7 9 8 9 10 10 7 7 7 5 4 6 8 8 8 7 8 9 8
20 19 19 19 19 18 17 16 16 15 13 13 11 11 10 10 13 13 13 9 9 9 8 6 6 5 6 6 7 11 12 13 11 6 7 7 8 8 9 10 10 9 10
19 19 18 21 21 19 17 16 15 12 13 12 10 10 11 9 14 15 16 11 10 9 8 7 6 5 6 5 6 7 8 8 8 7 6 7 7 8 8 8 10 11 10
17 18 18 20 22 19 17 15 13 14 13 11 9 10 10 9 13 13 13 9 9 9 7 5 6 7 7 8 7 7 7 7 8 10 10 11 10 10 10 7 7 9 9
15 17 18 17 20 19 17 14 12 15 14 11 11 10 13 10 12 13 9 6 7 5 6 6 9 6 6 11 8 6 7 8 9 10 8 7 8 8 10 6 6 7 6
16 19 19 16 19 16 17 13 14 15 13 12 11 9 11 9 9 11 8 5 5 5 5 5 4 7 11 13 9 7 6 7 9 6 6 7 8 8 7 7 7 6 7
16 19 18 17 14 13 15 13 14 13 13 10 11 9 7 7 9 10 7 5 5 6 6 4 5 11 11 11 8 10 10 7 5 6 7 8 8 8 8 8 9 8 7
18 16 16 16 15 12 14 13 11 10 9 8 8 8 6 5 5 7 7 9 10 8 5 9 12 12 11 8 11 12 9 6 6 7 8 7 8 8 9 9 8 9 10
16 14 13 14 13 11 9 8 8 8 7 8 8 7 6 5 4 4 5 6 9 7 8 8 10 10 12 8 7 8 6 7 7 7 7 7 8 7 7 8 8 9 7
13 10 10 10 12 10 10 6 6 4 6 8 6 7 7 6 3 5 5 6 5 6 8 6 7 7 7 7 7 8 7 8 8 7 7 8 9 9 9 9 9 8 7
9 7 7 9 10 8 9 9 16 13 15 13 11 7 5 8 12 12 11 11 11 9 7 6 7 6 6 7 6 6 7 9 8 7 7 8 9 9 10 10 9 7 8
10 7 7 9 9 8 7 9 11 10 16 13 10 10 9 10 12 13 16 17 12 9 8 6 6 5 5 6 6 6 6 6 7 7 7 8 8 8 10 10 10 9 9
9 12 7 7 7 6 7 8 8 9 9 7 9 8 12 11 11 13 13 9 8 8 7 6 6 5 6 5 5 6 6 7 7 7 7 8 8 8 9 11 10 11 11
8 7 7 6 6 8 7 7 7 8 8 8 7 9 8 12 16 16 11 7 7 7 6 6 5 6 6 5 5 5 5 6 6 7 7 8 8 8 9 10 10 12 13
7 11 8 7 6 7 6 7 8 8 7 7 6 5 2 5 7 7 6 7 7 6 5 5 5 5 5 5 5 6 6 7 7 7 7 8 8 8 9 10 11 11 12
6 7 7 7 6 6 6 7 7 7 6 5 5 4 5 8 7 6 6 6 6 5 6 5 4 5 5 5 6 6 6 6 7 7 7 7 8 8 9 9 10 11 12
5 5 6 6 6 6 6 6 6 6 6 5 5 5 8 7 7 7 6 6 5 5 5 5 4 5 5 6 6 6 6 7 7 7 8 8 7 8 8 9 10 10 12
5 6 6 5 6 7 6 6 6 6 5 6 6 7 6 7 7 7 7 6 5 5 5 5 5 5 5 5 6 6 6 7 7 6 7 7 7 8 8 9 10 11 12
3 5 6 6 6 6 6 6 6 7 7 6 6 6 7 7 8 8 7 6 5 5 5 5 5 7 6 6 6 6 6 7 6 6 7 7 7 8 8 9 10 11 11
2 4 5 7 7 6 7 7 7 7 7 7 7 6 7 7 8 7 6 6 5 5 6 5 5 6 8 9 10 11 10 11 9 8 6 7 9 11 9 8 10 10 12
2 4 5 6 7 7 7 8 8 8 8 7 7 7 7 7 7 7 6 5 5 4 4 5 5 7 8 7 10 10 10 11 10 9 6 7 8 8 8 10 13 9 12
Wind_Direction
182 177 168 159 144 127 127 141 134 127 124 117 116 129 119 90 88 95 88 79 88 79 64 87 81 79 76 70 61 52 48 39 327 309 295 310 304 343 353 348 344 343 343
167 157 158 140 125 119 132 123 127 120 122 113 124 124 121 96 88 90 102 103 101 90 79 88 95 94 80 68 54 48 38 32 310 295 297 305 310 354 345 345 347 346 341
155 148 143 130 125 128 113 114 111 110 107 106 110 119 104 99 96 99 100 98 94 99 98 98 98 89 72 55 51 31 4 9 333 287 310 294 321 354 351 347 345 334 345
140 133 138 129 124 116 113 112 108 108 108 105 101 97 95 93 103 113 109 110 96 92 94 89 82 75 70 48 40 21 12 16 4 357 336 342 336 340 342 351 344 347 334
131 126 130 121 118 117 116 114 116 107 108 105 104 97 96 101 105 113 114 105 107 100 81 77 66 62 57 49 47 23 30 27 20 2 359 349 350 346 352 341 334 325 327
124 125 124 124 115 113 110 112 111 106 106 107 104 107 107 99 98 92 100 106 100 95 86 72 66 49 46 54 61 52 56 32 20 359 348 347 335 338 339 331 330 337 336
129 129 125 123 117 111 109 106 102 103 104 95 93 97 91 87 92 97 95 91 88 88 85 75 65 45 49 48 53 51 45 35 26 356 340 344 325 352 331 327 331 320 304
125 127 127 120 116 111 106 106 104 104 98 96 93 89 88 80 87 89 90 88 86 82 82 79 75 56 44 46 48 44 36 20 8 3 352 338 327 330 329 323 317 307 297
124 127 129 125 115 113 110 110 109 104 92 91 87 84 86 76 83 90 94 93 94 85 82 80 79 74 73 57 48 33 20 17 359 348 335 330 334 337 340 338 346 334 328
121 121 109 112 109 111 111 108 111 98 101 99 88 79 87 83 78 87 96 109 99 102 84 80 69 61 50 53 47 22 17 4 352 351 352 351 346 341 338 342 328 327 324
108 100 98 100 101 107 107 114 109 103 103 96 92 79 77 73 70 89 106 110 120 119 113 88 66 57 54 50 36 17 4 347 344 349 347 357 359 359 349 338 325 313 301
97 96 99 101 102 105 109 109 102 108 103 102 98 86 73 69 69 74 100 118 136 105 95 95 69 50 41 32 24 7 5 4 5 9 6 8 2 352 338 328 320 303 277
83 84 92 95 99 104 111 108 104 104 107 105 101 100 97 77 72 82 95 105 92 88 91 79 56 46 39 35 23 18 12 15 15 19 8 356 350 331 322 327 324 318 306
75 78 85 86 92 89 91 104 110 113 111 107 109 114 109 101 107 105 91 84 74 81 69 62 58 52 47 36 26 18 17 14 15 13 5 348 341 344 337 344 339 337 326
70 71 88 87 86 82 69 72 99 65 117 127 127 121 121 121 124 123 110 98 102 97 83 61 49 41 34 29 27 18 16 18 16 9 8 5 360 352 352 343 344 339 339
108 90 90 96 91 91 97 88 61 89 89 93 105 110 91 108 112 103 93 88 86 79 70 63 53 45 38 24 21 14 18 13 6 4 10 11 7 358 351 350 349 343 334
91 97 94 93 96 103 110 113 108 70 75 84 98 98 95 105 99 97 91 76 61 75 78 66 60 46 39 32 14 15 12 3 352 7 5 9 9 4 356 356 354 342 339
98 95 89 91 100 115 114 110 122 125 114 99 70 91 83 85 90 102 95 86 68 54 67 62 52 43 37 29 19 15 4 5 9 6 6 4 7 6 360 360 356 348 342
97 93 96 104 110 115 115 120 120 115 113 112 108 74 63 77 84 72 65 85 88 75 65 63 47 42 34 20 21 13 14 9 2 4 5 2 1 360 1 2 355 347 344
101 126 123 116 118 124 128 122 119 112 110 113 107 114 108 90 88 81 79 86 83 78 71 64 48 44 39 26 19 15 10 14 10 10 4 358 356 356 358 357 0 355 358
141 139 132 128 128 126 121 117 110 111 116 116 107 83 115 112 112 107 100 87 89 85 76 64 47 39 35 25 22 21 16 11 5 1 359 358 356 356 354 357 1 1 2
131 143 140 137 130 125 121 124 127 127 129 125 107 91 99 104 115 114 104 95 85 76 74 75 60 40 31 23 20 18 13 8 6 359 352 352 353 358 357 0 6 8 6
136 129 124 117 110 108 105 123 130 123 123 119 120 117 117 118 122 118 113 105 92 83 73 69 63 47 28 28 24 18 12 2 350 344 344 347 357 5 2 3 4 7 9
127 123 119 115 118 113 120 125 122 114 123 122 120 121 129 127 126 123 122 113 98 82 72 67 58 52 35 32 24 19 16 4 353 350 353 355 1 8 10 8 7 8 11
136 125 125 132 130 128 123 124 121 118 119 125 127 129 130 126 128 126 124 115 103 87 74 64 55 46 39 36 32 24 10 3 9 353 10 10 16 15 11 12 9 10 16
131 125 130 133 136 139 136 135 130 128 128 131 130 130 133 128 129 132 129 123 113 101 86 68 57 47 37 32 27 11 5 5 10 1 13 20 21 21 10 13 13 15 15